Zurück zum Katalog

STARLINK-34498

AktivKommunikationVLEO
NORAD 64421·PAYLOAD·🇺🇸 United States

Gestartet Jun 17, 2025 von Vandenberg Space Force Base

Loading…

Nächste Überflüge (nächste 24 Stunden)

TLE

AktuellSource: CelesTrak SupGP

Epoche: Sep 15, 2026, 03:13 UTC

1 64421C 25129K   26258.13451389  .00037006  00000+0  12872-2 0  2588
2 64421  69.9993 314.9977 0003493 267.0830 307.0302 15.29563561    18

Verfolge STARLINK-34498 in Echtzeit mit AllMySat

Download on the App Store